Regional Weather Roundup
Issued by NWS

Home | Current Version | Previous Version | Graphics & Text | Print | Product List | Glossary On
Versions: 1 2 3 4 5 6 7 8 9 10 11 12 13 14 15 16 17 18 19 20 21 22 23 24 25 26 27 28 29 30 31 32 33 34 35 36 37 38 39 40 41 42 43 44 45 46 47 48 49 50
000
ASUS43 KLMK 260610
RWRKY
KENTUCKY REGIONAL WEATHER ROUNDUP
NATIONAL WEATHER SERVICE LOUISVILLE KY
200 AM EDT THU APR 26 2018

NOTE "FAIR" INDICATES FEW OR NO CLOUDS BELOW 12,000 FEET
WITH NO SIGNIFICANT WEATHER AND/OR OBSTRUCTIONS TO VISIBILITY.

KYZ001>023-026-027-061>063-070>075-260700-
WESTERN AND SOUTH CENTRAL KENTUCKY

CITY           SKY/WX    TMP DP  RH WIND       PRES   REMARKS
PADUCAH        LGT RAIN  56  54  93 CALM      29.90F
HENDERSON      FAIR      58  54  86 CALM      29.91F
OWENSBORO      MOCLDY    60  48  64 NE5       29.91F
HOPKINSVILLE   MOCLDY    58  53  82 W5        29.90F
BOWLING GREEN  FAIR      59  52  77 CALM      29.90F
GLASGOW        FAIR      53  51  91 E3        29.90F
$$

KYZ024-025-028>034-038-045-046-053-260700-
NORTH CENTRAL KENTUCKY

CITY           SKY/WX    TMP DP  RH WIND       PRES   REMARKS
LOUISVILLE/SDF CLOUDY    57  40  52 N10       29.91S
LOUISVILLE/LOU FAIR      56  47  71 N5        29.92S
FORT KNOX      CLOUDY    55  45  67 N3        29.91F
$$

KYZ035>037-039>044-047>052-055>060-089>105-260700-
NORTHEAST KENTUCKY

CITY           SKY/WX    TMP DP  RH WIND       PRES   REMARKS
LEXINGTON      FAIR      54  45  71 CALM      29.91F
COVINGTON      CLOUDY    49  35  58 N9        29.93S
FRANKFORT      FAIR      52  45  77 CALM      29.90F
$$

KYZ054-064>069-076>088-106>120-260700-
SOUTHEAST KENTUCKY

CITY           SKY/WX    TMP DP  RH WIND       PRES   REMARKS
JACKSON        CLOUDY    51  50  96 S3        29.92S FOG
LONDON         FOG       47  47 100 CALM      29.92F VSB 1/4
SOMERSET       FAIR      48  48 100 CALM      29.93F
MIDDLESBORO    CLOUDY    48  48 100 CALM      29.95S
MONTICELLO     NOT AVBL
$$





USA.gov is the U.S. government's official web portal to all federal, state and local government web resources and services.